Flag Weather past 2 weeks in Olympia, Washington, U.S.A.

Now
58 °F

Overcast.


Feels Like: 56 °F
Forecast: 53 / 56 °F
Wind: 10 mph from Southwest

Location: Olympia Airport

Current Time: Nov 26, 2014 at 4:18:41 PM

Latest Report: Nov 26, 2014 at 3:54 PM


Visibility: 10 mi

Pressure: 30.01 "Hg

Humidity: 81%

Dew point: 52 °F

Location of OlympiaLocation

Historic Weather in Olympia — Graph

°F

Olympia temperature yesterday

Maximum temperature yesterday: 58 °F (at 10:54 AM)
Minimum temperature yesterday: 51 °F (at 12:03 AM)
Average temperature yesterday: 55 °F

Past Weeks' High & Low Weather Summary

 TemperatureHumidityPressure
High58 °F (Nov 25, 10:54 AM)100% (Nov 18, 2:54 AM)30.53 "Hg (Nov 18, 2:54 AM)
Low16 °F (Nov 16, 6:54 AM)24% (Nov 12, 2:54 PM)29.32 "Hg (Nov 21, 4:54 PM)
Average40 °F76%30.13 "Hg
* Reported Nov 11 2:54 PM — Nov 26 2:54 PM, Olympia, Weather by CustomWeather, © 2014

Note: Actual official high and low records may vary slightly from our data, if they occured in-between our weather recording intervals... More about our weather records

Advertising

Olympia weather history for previous 24 hours

 ConditionsComfort  
Time TempWeatherWind HumidityBarometerVisibility
2:54 PM
Nov 26
58 °FOvercast.6 mph81%30.04 "Hg10 mi
1:54 PM58 °FOvercast.5 mph84%30.05 "Hg10 mi
12:54 PM58 °FOvercast.7 mph84%30.08 "Hg10 mi
11:54 AM57 °FOvercast.7 mph87%30.09 "Hg10 mi
10:54 AM57 °FPartly sunny.9 mph90%30.11 "Hg10 mi
9:54 AM55 °FMore clouds than sun.No wind96%30.12 "Hg10 mi
8:54 AM55 °FOvercast.No wind93%30.14 "Hg10 mi
7:54 AM54 °FOvercast.3 mph97%30.15 "Hg10 mi
6:54 AM55 °FFog.7 mph93%30.15 "Hg6 mi
5:54 AM55 °FOvercast.10 mph93%30.15 "Hg10 mi
4:54 AM55 °FOvercast.9 mph93%30.16 "Hg9 mi
3:54 AM55 °FOvercast.10 mph93%30.18 "Hg10 mi
2:54 AM55 °FLight rain. Mostly cloudy.12 mph93%30.20 "Hg8 mi
1:54 AM55 °FLight rain. Mostly cloudy.12 mph96%30.20 "Hg8 mi
12:54 AM55 °FMostly cloudy.12 mph96%30.21 "Hg8 mi
11:54 PM
Nov 25
56 °FLight rain. Fog.12 mph93%30.22 "Hg5 mi
10:54 PM55 °FLight rain. Fog.10 mph96%30.20 "Hg5 mi
9:54 PM56 °FLight rain. Fog.10 mph93%30.20 "Hg4 mi
8:54 PM57 °FOvercast.9 mph87%30.20 "Hg10 mi
7:54 PM56 °FMostly cloudy.14 mph90%30.20 "Hg10 mi
6:54 PM56 °FMostly cloudy.9 mph90%30.21 "Hg10 mi
5:54 PM56 °FLight rain. Fog.13 mph93%30.22 "Hg5 mi
5:04 PM56 °FFog.14 mph93%30.21 "Hg3 mi
4:54 PM56 °FLight rain. Fog.12 mph93%30.21 "Hg5 mi
Weather by CustomWeather, © 2014

See weather overviewHow to use our weather pages